Flag for Liberia Weather past 2 weeks in Monrovia, Liberia

Now
75 °F

Passing clouds.


Feels Like: 74 °F
Forecast: N/A
Wind: No wind

Location: Roberts Field

Current Time: Sep 17, 2014 at 8:19:34 PM

Latest Report: Sep 17, 2014 at 8:00 PM


Visibility: 6 mi

Pressure: 29.92 "Hg

Humidity: 94%

Dew point: 73 °F

Location of MonroviaLocation

Historic Weather in Monrovia — Graph

°F

Monrovia temperature yesterday

Maximum temperature yesterday: 79 °F (at 11:00 AM)
Minimum temperature yesterday: 73 °F (at 7:30 AM)
Average temperature yesterday: 76 °F

Past Weeks' High & Low Weather Summary

 TemperatureHumidityPressure
High86 °F (Sep 4, 2:00 PM)100% (Sep 16, 7:30 AM)30.04 "Hg (Sep 16, 7:30 AM)
Low73 °F (Sep 2, 8:30 PM)66% (Sep 8, 2:30 PM)29.83 "Hg (Sep 12, 5:30 PM)
Average78 °F90%29.93 "Hg
* Reported Sep 2 7:00 PM — Sep 17 7:00 PM, Monrovia, Weather by CustomWeather, © 2014

Note: Actual official high and low records may vary slightly from our data, if they occured in-between our weather recording intervals... More about our weather records

Advertising

Monrovia weather history for previous 24 hours

 ConditionsComfort  
Time TempWeatherWind HumidityBarometerVisibility
7:00 PM
Sep 17
75 °FDrizzle. Partly sunny.No wind94%29.89 "Hg6 mi
6:30 PM75 °FLight rain. Partly sunny.5 mph94%29.89 "Hg5 mi
6:00 PM75 °FLight rain. Partly sunny.9 mph94%29.89 "Hg5 mi
5:30 PM75 °FRain. Broken clouds.No wind94%29.89 "Hg4 mi
5:00 PM73 °FHeavy rain. Mostly cloudy.10 mph94%29.89 "Hg1 mi
4:30 PM73 °FHeavy rain. Mostly cloudy.No wind100%29.89 "Hg1 mi
4:00 PM73 °FHeavy rain. Mostly cloudy.3 mph100%29.89 "Hg2 mi
3:30 PM73 °FHeavy rain. Mostly cloudy.No wind100%29.89 "Hg2 mi
3:00 PM73 °FHeavy rain. Mostly cloudy.7 mph100%29.89 "Hg1 mi
2:30 PM75 °FRain. Mostly cloudy.3 mph94%29.89 "Hg4 mi
12:30 PM77 °FLight rain. Partly sunny.6 mph94%29.95 "Hg4 mi
12:00 PM77 °FRain. Broken clouds.8 mph94%29.95 "Hg4 mi
11:30 AM77 °FHeavy rain. Broken clouds.6 mph94%29.95 "Hg2 mi
10:00 AM75 °FRain. Broken clouds.6 mph94%29.98 "Hg4 mi
9:30 AM75 °FRain. Broken clouds.3 mph94%29.98 "Hg4 mi
9:00 AM75 °FThunderstorms. Partly sunny.3 mph94%29.98 "Hg6 mi
8:30 AM75 °FThunderstorms. Partly sunny.3 mph94%29.95 "Hg5 mi
7:30 AM73 °FThunderstorms. Partly cloudy.No wind100%29.95 "Hg3 mi
12:30 AM75 °FThunderstorms. Mostly cloudy.No wind94%29.95 "Hg4 mi
12:00 AM75 °FThunderstorms. Mostly cloudy.No wind94%29.98 "Hg5 mi
11:30 PM
Sep 16
75 °FThunderstorms. Mostly cloudy.No wind94%29.98 "Hg5 mi
11:00 PM75 °FThunderstorms. Mostly cloudy.6 mph94%29.98 "Hg3 mi
10:00 PM75 °FRain. Partly cloudy.5 mph94%29.98 "Hg4 mi
8:30 PM75 °FRain. Passing clouds.No wind94%29.95 "Hg3 mi
8:00 PM75 °FRain. Passing clouds.No wind94%29.92 "Hg4 mi
Weather by CustomWeather, © 2014

See weather overviewHow to use our weather pages